Location: Casilda
(33.0440°S, 61.1680°W)
Time: 08:50:19
(UTC-03:00)

ISS - Pass Details

Date: 06 August 2022
Orbit: 412 x 420 km, 51.6° (Epoch: 13 August)

Event Time Altitude Azimuth Distance (km) Brightness Sun altitude
Exits shadow 06:32:19 10° 189° (S) 1,535 -1.1 -16.8°
Reaches altitude 10° 06:32:21 10° 188° (S) 1,529 -1.1 -16.8°
Maximum altitude 06:34:33 16° 148° (SSE) 1,209 -1.2 -16.4°
Drops below altitude 10° 06:36:46 10° 108° (ESE) 1,518 0.1 -15.9°
Sets 06:39:27 0° 85° (E) 2,375 1.9 -15.4°
